EW2734 Weather Reports


time (UTC)temp
C
wind
direction
speed
KPH
gust
KPH
rain 1hr
cm
rain 24hr
cm
rain mn
cm
humidity
%
barometer
mb
20260507113014 2 238 4.8 11.3 0.00 0.20 0.03 93 1019.6
20260507111506 2 238 4.8 11.3 0.00 0.20 0.03 93 1019.6
20260507110002 2 235 4.8 12.9 0.00 0.20 0.03 92 1019.7
20260507104559 2 219 3.2 11.3 0.00 0.20 0.03 92 1019.7
20260507103055 2 243 1.6 9.7 0.03 0.20 0.03 93 1019.8
20260507101600 2 222 0.0 3.2 0.03 0.20 0.03 92 1019.9
20260507100051 3 230 0.0 3.2 0.03 0.20 0.03 93 1020.0
20260507094550 3 261 0.0 3.2 0.03 0.20 0.03 93 1020.1
20260507093050 2 249 0.0 0.0 0.00 0.18 0.00 93 1020.2
20260507091549 3 260 0.0 1.6 0.00 0.18 0.00 93 1020.4
20260507090047 3 243 0.0 0.0 0.00 0.18 0.00 93 1020.5
20260507084553 3 250 0.0 1.6 0.00 0.20 0.00 92 1020.8
20260507083040 3 229 0.0 1.6 0.00 0.20 0.00 92 1020.7
20260507081540 4 244 0.0 3.2 0.00 0.20 0.00 93 1020.9
20260507080036 4 268 0.0 1.6 0.00 0.20 0.00 93 1021.2
20260507074531 4 259 0.0 0.0 0.00 0.30 0.00 94 1021.2
20260507073029 5 251 0.0 0.0 0.00 0.30 0.00 94 1021.4
20260507071529 5 248 0.0 0.0 0.00 0.30 0.00 93 1021.4
20260507070031 5 240 0.0 0.0 0.00 0.30 0.00 94 1021.6
20260507064525 5 259 0.0 0.0 0.00 0.43 0.00 94 1021.7
20260507063023 5 264 0.0 0.0 0.00 0.43 0.00 93 1021.8
20260507061521 5 264 0.0 0.0 0.00 0.43 0.00 94 1021.8
20260507060018 5 269 0.0 0.0 0.00 0.43 0.00 93 1022.1
20260507054521 6 274 0.0 0.0 0.00 0.81 0.00 93 1022.0
20260507053014 6 263 0.0 0.0 0.00 0.81 0.00 93 1022.0
20260507051512 6 277 0.0 0.0 0.00 0.81 0.00 93 1022.0
20260507050009 7 281 0.0 0.0 0.00 0.81 0.00 93 1022.0
20260507044509 7 272 0.0 0.0 0.00 0.94 0.81 93 1022.1
20260507043019 7 282 0.0 0.0 0.00 0.94 0.81 93 1022.2
20260507041507 7 271 0.0 0.0 0.00 0.94 0.81 93 1022.4
20260507040010 7 274 0.0 0.0 0.03 0.94 0.81 92 1022.1
20260507034505 7 263 0.0 0.0 0.03 0.94 0.81 92 1022.0
20260507033006 7 245 0.0 0.0 0.03 0.94 0.81 92 1022.2
20260507031504 7 291 0.0 1.6 0.10 0.94 0.81 92 1021.9
20260507030003 7 281 0.0 0.0 0.13 0.91 0.79 91 1021.7
20260507024608 7 288 0.0 0.0 0.15 0.91 0.79 90 1021.3
20260507023058 7 314 0.0 0.0 0.15 0.91 0.79 90 1020.9
20260507021601 7 304 0.0 0.0 0.08 0.84 0.71 89 1020.9
20260507020112 8 326 0.0 0.0 0.03 0.79 0.66 85 1020.8
20260507014604 8 307 0.0 0.0 0.00 0.76 0.64 80 1020.8
20260507013058 8 322 0.0 0.0 0.00 0.76 0.64 79 1020.4
20260507011553 9 332 0.0 0.0 0.00 0.76 0.64 78 1020.0
20260507010056 9 339 0.0 0.0 0.00 0.76 0.64 77 1020.0
20260507004601 9 344 0.0 0.0 0.00 0.76 0.64 75 1019.7
20260507003053 9 7 0.0 0.0 0.00 0.76 0.64 72 1019.5
20260507001552 9 356 0.0 0.0 0.00 0.76 0.64 73 1019.8
20260507000051 10 6 0.0 0.0 0.00 0.76 0.64 71 1019.8
20260506234552 10 339 0.0 0.0 0.00 0.76 0.64 71 1019.6
20260506233102 10 16 0.0 0.0 0.00 0.76 0.64 67 1019.3
20260506231555 10 336 0.0 0.0 0.00 0.76 0.64 67 1019.2
20260506230052 10 1 0.0 0.0 0.00 0.76 0.64 67 1019.4
20260506224551 10 217 0.0 0.0 0.00 0.76 0.64 65 1019.3
20260506223048 10 348 0.0 1.6 0.00 0.76 0.64 67 1019.5
20260506221548 10 336 0.0 0.0 0.00 0.76 0.64 67 1019.5
20260506220045 10 105 0.0 0.0 0.00 0.76 0.64 68 1019.5
20260506214543 10 360 0.0 0.0 0.00 0.76 0.64 68 1019.5
20260506213057 10 8 0.0 0.0 0.00 0.76 0.64 70 1019.5
20260506211539 9 267 0.0 0.0 0.00 0.76 0.64 70 1019.6
20260506210037 8 76 0.0 0.0 0.00 0.76 0.64 71 1019.7
20260506204536 8 72 0.0 0.0 0.00 0.76 0.64 70 1019.9
20260506203035 8 101 0.0 1.6 0.00 0.76 0.64 69 1020.0
20260506201534 8 101 0.0 0.0 0.00 0.76 0.64 68 1019.9
20260506200032 8 52 0.0 0.0 0.00 0.76 0.64 67 1019.9
20260506194532 8 113 0.0 1.6 0.00 0.76 0.64 65 1019.8
20260506193031 8 69 0.0 1.6 0.00 0.76 0.64 66 1019.9
20260506191530 8 82 0.0 1.6 0.00 0.76 0.64 67 1020.0
20260506190028 8 96 0.0 8.0 0.00 0.76 0.64 66 1020.0
20260506184541 8 76 0.0 3.2 0.00 0.76 0.64 70 1020.2
20260506183036 8 100 0.0 1.6 0.00 0.76 0.64 70 1020.5
20260506181531 8 86 0.0 4.8 0.00 0.76 0.64 71 1020.7
20260506180027 8 80 0.0 8.0 0.00 0.76 0.64 71 1020.6
20260506174524 8 44 0.0 1.6 0.00 0.76 0.64 74 1020.6
20260506173016 7 82 0.0 6.4 0.00 0.76 0.64 75 1020.5
20260506171516 7 281 0.0 1.6 0.00 0.76 0.64 79 1020.5
20260506170012 7 98 0.0 1.6 0.00 0.76 0.64 81 1020.4
20260506164510 7 68 0.0 6.4 0.00 0.76 0.64 82 1020.0
20260506163009 7 68 0.0 3.2 0.00 0.76 0.64 84 1020.0
20260506161505 7 216 0.0 1.6 0.00 0.76 0.64 86 1019.9
20260506160003 6 91 0.0 3.2 0.00 0.76 0.64 87 1019.9
20260506154604 6 20 0.0 0.0 0.00 0.76 0.64 88 1019.7
20260506153114 6 82 0.0 0.0 0.00 0.76 0.64 89 1019.7
20260506151557 6 27 0.0 0.0 0.00 0.76 0.64 90 1019.5
20260506144558 5 84 0.0 0.0 0.00 0.76 0.64 93 1019.0
20260506143055 5 79 0.0 0.0 0.00 0.76 0.64 94 1019.3
20260506141554 5 80 0.0 0.0 0.00 0.76 0.64 94 1019.6
20260506140053 5 83 0.0 0.0 0.00 0.76 0.64 94 1020.0
20260506134551 5 94 0.0 0.0 0.00 0.76 0.64 94 1019.8
20260506133049 5 75 0.0 0.0 0.00 0.76 0.64 95 1019.6
20260506131553 5 83 0.0 0.0 0.00 0.76 0.64 95 1019.3
20260506130047 4 77 0.0 0.0 0.00 0.76 0.64 95 1019.3
20260506124544 4 87 0.0 0.0 0.00 0.76 0.64 95 1018.7
20260506123041 4 60 0.0 0.0 0.00 0.76 0.64 95 1018.2
20260506121538 4 86 0.0 0.0 0.00 0.76 0.64 95 1017.9
20260506120040 4 55 0.0 0.0 0.00 0.76 0.64 95 1017.4
20260506114536 4 84 0.0 0.0 0.00 0.76 0.64 95 1017.5